TimeEST,TemperatureF,Dew PointF,Humidity,Sea Level PressureIn,VisibilityMPH,Wind Direction,Wind SpeedMPH,Gust SpeedMPH,PrecipitationIn,Events,Conditions,WindDirDegrees,DateUTC
12:32 AM,30.2,21.2,69,29.65,10.0,NNW,6.9,-,N/A,,Overcast,330,2013-03-03 05:32:00
1:52 AM,28.9,21.0,72,29.67,10.0,NNW,10.4,-,N/A,,Overcast,330,2013-03-03 06:52:00
2:52 AM,28.9,21.0,72,29.65,10.0,NNW,9.2,-,N/A,,Overcast,340,2013-03-03 07:52:00
3:20 AM,28.4,19.4,69,29.63,10.0,NW,8.1,-,N/A,,Overcast,310,2013-03-03 08:20:00
3:52 AM,28.0,19.9,72,29.65,10.0,NW,6.9,-,N/A,,Overcast,320,2013-03-03 08:52:00
4:00 AM,28.4,19.4,69,29.63,10.0,NW,6.9,-,N/A,,Overcast,320,2013-03-03 09:00:00
4:52 AM,28.0,19.9,72,29.65,10.0,NW,8.1,-,N/A,,Overcast,320,2013-03-03 09:52:00
5:33 AM,28.4,19.4,69,29.64,10.0,NW,10.4,-,N/A,,Overcast,320,2013-03-03 10:33:00
5:52 AM,28.0,19.9,72,29.66,10.0,NW,8.1,-,N/A,,Overcast,310,2013-03-03 10:52:00
6:52 AM,27.0,21.0,78,29.67,10.0,NNW,6.9,-,N/A,,Overcast,330,2013-03-03 11:52:00
7:09 AM,26.6,21.2,80,29.65,5.0,NNW,9.2,-,0.00,Snow,Light Snow,330,2013-03-03 12:09:00
7:42 AM,26.6,21.2,80,29.65,1.8,NW,8.1,-,0.00,Snow,Light Snow,320,2013-03-03 12:42:00
7:52 AM,27.0,21.9,81,29.67,1.2,NW,6.9,-,0.00,Snow,Light Snow,320,2013-03-03 12:52:00
8:18 AM,26.6,23.0,86,29.65,1.5,NNW,5.8,-,0.00,Snow,Light Snow,330,2013-03-03 13:18:00
8:30 AM,26.6,21.2,80,29.65,2.5,NNW,9.2,-,0.00,Snow,Light Snow,330,2013-03-03 13:30:00
8:52 AM,28.0,21.9,78,29.67,4.0,NNW,8.1,-,0.00,Snow,Light Snow,330,2013-03-03 13:52:00
9:52 AM,28.9,21.9,75,29.66,5.0,NNW,11.5,-,0.00,Snow,Light Snow,330,2013-03-03 14:52:00
10:27 AM,28.4,24.8,86,29.63,2.5,NW,9.2,-,0.00,Snow,Light Snow,310,2013-03-03 15:27:00
10:37 AM,30.2,23.0,75,29.63,3.0,NNW,9.2,-,0.00,Snow,Light Snow,330,2013-03-03 15:37:00
10:52 AM,30.0,24.1,79,29.65,3.0,NNW,10.4,-,0.00,Snow,Light Snow,340,2013-03-03 15:52:00
11:52 AM,30.9,24.1,76,29.64,4.0,NNW,9.2,-,0.00,Snow,Light Snow,330,2013-03-03 16:52:00
12:52 PM,32.0,25.0,75,29.62,8.0,NW,8.1,-,0.00,,Overcast,310,2013-03-03 17:52:00
1:52 PM,32.0,26.1,79,29.61,2.5,WNW,8.1,-,0.00,Snow,Light Snow,300,2013-03-03 18:52:00
2:08 PM,33.8,26.6,75,29.59,6.0,WNW,8.1,-,0.00,Snow,Light Snow,300,2013-03-03 19:08:00
2:31 PM,33.8,26.6,75,29.59,1.8,NNW,9.2,-,0.00,Snow,Light Snow,330,2013-03-03 19:31:00
2:52 PM,32.0,27.0,82,29.61,1.5,WNW,6.9,-,0.00,Snow,Light Snow,290,2013-03-03 19:52:00
3:02 PM,32.0,26.6,80,29.59,2.5,WNW,4.6,-,0.00,Snow,Light Snow,300,2013-03-03 20:02:00
3:10 PM,33.8,26.6,75,29.58,5.0,NW,9.2,-,0.00,Snow,Light Snow,310,2013-03-03 20:10:00
3:52 PM,33.1,24.1,70,29.61,10.0,NW,13.8,18.4,0.00,,Overcast,320,2013-03-03 20:52:00
4:07 PM,33.8,24.8,70,29.59,10.0,NW,11.5,-,N/A,,Overcast,310,2013-03-03 21:07:00
4:52 PM,33.1,23.0,66,29.62,10.0,NW,12.7,-,0.00,,Overcast,310,2013-03-03 21:52:00
5:52 PM,32.0,23.0,69,29.63,10.0,NW,10.4,-,N/A,,Overcast,310,2013-03-03 22:52:00
6:52 PM,32.0,21.9,66,29.64,10.0,NNW,9.2,-,N/A,,Overcast,330,2013-03-03 23:52:00
7:52 PM,30.9,23.0,72,29.65,10.0,NNW,6.9,-,N/A,,Overcast,340,2013-03-04 00:52:00
8:52 PM,30.9,21.9,69,29.66,10.0,NNW,9.2,-,N/A,,Overcast,330,2013-03-04 01:52:00
9:52 PM,30.9,23.0,72,29.66,10.0,NW,4.6,-,N/A,,Overcast,310,2013-03-04 02:52:00
10:52 PM,30.0,21.9,72,29.65,10.0,NW,6.9,-,N/A,,Overcast,310,2013-03-04 03:52:00
11:52 PM,30.0,19.9,66,29.66,10.0,WNW,9.2,-,N/A,,Overcast,300,2013-03-04 04:52:00